Tracking 30692 objects as of 16-Jun-2025
HD Live streaming from Space Station
objects crossing your sky now

STARLINK-11134

Track STARLINK-11134 now!
10-day predictions
STARLINK-11134 is classified as:


NORAD ID: 59956
Int'l Code: 2024-107M
Perigee: 366.2 km
Apogee: 367.5 km
Inclination: 53.2 °
Period: 91.7 minutes
Semi major axis: 6737 km
RCS: Unknown
Launch date: June 5, 2024
Source: United States (US)
Launch site: AIR FORCE EASTERN TEST RANGE (AFETR)
Your satellite tracking list
Your tracking list is empty




NASA's NSSDC Master Catalog

Two Line Element Set (TLE):
1 59956U 24107M   25166.62368244 -.00002150  00000-0 -12894-4 0  9991
2 59956  53.1594 127.5510 0000941  89.8446 270.2679 15.69710747 60137
Source of the keplerian elements: AFSPC